User: anonymous   Login
Location: Unspecified
(0.0000°N, 0.0000°E)
Time: 08:57:21
(UTC+00:00)
Language:

MAROC-TUBSAT - Orbit

View from above orbital plane
View from above orbital plane
View from above satellite
View from above satellite

Ground track
Ground track

The orbit data is extracted from the following two-line orbital elements,

1 27004U 01056D   17204.89689903 -.00000050 +00000-0 -76344-5 0  9997
2 27004 099.3624 343.7279 0019069 239.9156 288.1396 13.70123514781070
Epoch (UTC): 23 July 2017 21:31:32
Eccentricity: 0.0019069
inclination: 99.3624°
perigee height: 985 km
apogee height: 1013 km
right ascension of ascending node: 343.7279°
argument of perigee: 239.9156°
revolutions per day: 13.70123514
mean anomaly at epoch: 288.1396°
orbit number at epoch: 78107

The dashed part of the orbit path shows where the satellite is in the earth's shadow,  

DLR